| time (UTC) | temp F | wind direction | speed MPH | gust MPH | rain 1hr in | rain 24hr in | rain mn in | humidity % | barometer mb |
| 20260508081035 | 61 | 24 | 1.0 | 4.0 | 0.00 | 0.00 | 0.00 | 88 | 1014.9 |
| 20260508080535 | 61 | 24 | 2.0 | 5.0 | 0.00 | 0.00 | 0.00 | 88 | 1015.1 |
| 20260508080050 | 61 | 24 | 2.0 | 5.0 | 0.00 | 0.00 | 0.00 | 88 | 1015.0 |
| 20260508075535 | 61 | 24 | 2.0 | 5.0 | 0.00 | 0.00 | 0.00 | 88 | 1014.8 |
| 20260508075038 | 61 | 24 | 2.0 | 5.0 | 0.00 | 0.00 | 0.00 | 88 | 1014.9 |
| 20260508074552 | 61 | 24 | 3.0 | 5.0 | 0.00 | 0.00 | 0.00 | 88 | 1015.1 |
| 20260508074035 | 61 | 24 | 2.0 | 4.0 | 0.00 | 0.00 | 0.00 | 88 | 1015.1 |
| 20260508073535 | 61 | 24 | 2.0 | 4.0 | 0.00 | 0.00 | 0.00 | 88 | 1015.1 |
| 20260508073059 | 61 | 24 | 0.0 | 3.0 | 0.00 | 0.00 | 0.00 | 88 | 1015.2 |
| 20260508072535 | 61 | 0 | 0.0 | 3.0 | 0.00 | 0.00 | 0.00 | 88 | 1015.2 |
| 20260508072037 | 61 | 0 | 0.0 | 3.0 | 0.00 | 0.00 | 0.00 | 88 | 1015.3 |
| 20260508071559 | 60 | 24 | 1.0 | 5.0 | 0.00 | 0.00 | 0.00 | 88 | 1015.3 |
| 20260508071040 | 60 | 24 | 1.0 | 5.0 | 0.00 | 0.00 | 0.00 | 88 | 1015.1 |
| 20260508070538 | 60 | 42 | 2.0 | 5.0 | 0.00 | 0.00 | 0.00 | 88 | 1015.0 |
| 20260508070100 | 60 | 9 | 2.0 | 5.0 | 0.00 | 0.00 | 0.00 | 88 | 1015.1 |
| 20260508065540 | 60 | 9 | 2.0 | 5.0 | 0.00 | 0.00 | 0.00 | 88 | 1015.3 |
| 20260508065038 | 60 | 42 | 1.0 | 4.0 | 0.00 | 0.00 | 0.00 | 88 | 1014.9 |
| 20260508064550 | 61 | 101 | 2.0 | 6.0 | 0.00 | 0.00 | 0.00 | 88 | 1014.8 |
| 20260508064039 | 60 | 332 | 2.0 | 7.0 | 0.00 | 0.00 | 0.00 | 88 | 1015.5 |
| 20260508063539 | 60 | 351 | 4.0 | 7.0 | 0.00 | 0.00 | 0.00 | 88 | 1015.8 |
| 20260508063049 | 60 | 348 | 2.0 | 6.0 | 0.00 | 0.00 | 0.00 | 88 | 1015.5 |
| 20260508062538 | 60 | 53 | 3.0 | 6.0 | 0.00 | 0.00 | 0.00 | 88 | 1015.3 |
| 20260508062038 | 60 | 33 | 2.0 | 4.0 | 0.00 | 0.00 | 0.00 | 88 | 1015.2 |
| 20260508061548 | 60 | 323 | 2.0 | 3.0 | 0.00 | 0.00 | 0.00 | 87 | 1015.4 |
| 20260508061038 | 61 | 323 | 1.0 | 3.0 | 0.00 | 0.00 | 0.00 | 87 | 1015.6 |
| 20260508060537 | 61 | 323 | 1.0 | 5.0 | 0.00 | 0.00 | 0.00 | 87 | 1015.5 |
| 20260508060051 | 61 | 323 | 1.0 | 5.0 | 0.00 | 0.00 | 0.00 | 87 | 1015.7 |
| 20260508055537 | 61 | 323 | 2.0 | 5.0 | 0.00 | 0.00 | 0.00 | 87 | 1015.6 |
| 20260508055036 | 61 | 63 | 2.0 | 4.0 | 0.00 | 0.00 | 0.00 | 87 | 1014.8 |
| 20260508054600 | 61 | 18 | 2.0 | 5.0 | 0.00 | 0.00 | 0.00 | 86 | 1015.2 |
| 20260508054038 | 61 | 18 | 3.0 | 5.0 | 0.00 | 0.00 | 0.00 | 86 | 1015.3 |
| 20260508053537 | 61 | 18 | 2.0 | 7.0 | 0.00 | 0.00 | 0.00 | 86 | 1015.2 |
| 20260508053053 | 61 | 5 | 3.0 | 7.0 | 0.00 | 0.00 | 0.00 | 86 | 1015.6 |
| 20260508052537 | 61 | 24 | 2.0 | 6.0 | 0.00 | 0.00 | 0.00 | 86 | 1015.3 |
| 20260508052040 | 61 | 108 | 3.0 | 7.0 | 0.00 | 0.00 | 0.00 | 86 | 1015.2 |
| 20260508051548 | 61 | 360 | 4.0 | 7.0 | 0.00 | 0.00 | 0.00 | 86 | 1015.6 |
| 20260508051037 | 61 | 355 | 3.0 | 6.0 | 0.00 | 0.00 | 0.00 | 87 | 1015.7 |
| 20260508050538 | 61 | 355 | 3.0 | 6.0 | 0.00 | 0.00 | 0.00 | 87 | 1015.9 |
| 20260508050052 | 61 | 355 | 4.0 | 5.0 | 0.00 | 0.00 | 0.00 | 87 | 1015.8 |
| 20260508045540 | 61 | 32 | 1.0 | 4.0 | 0.00 | 0.00 | 0.00 | 87 | 1015.1 |
| 20260508045039 | 61 | 105 | 1.0 | 5.0 | 0.00 | 0.00 | 0.00 | 87 | 1015.1 |
| 20260508044556 | 61 | 40 | 2.0 | 5.0 | 0.00 | 0.00 | 0.00 | 87 | 1015.5 |
| 20260508044038 | 61 | 55 | 3.0 | 8.0 | 0.00 | 0.00 | 0.00 | 87 | 1015.7 |
| 20260508043539 | 61 | 12 | 3.0 | 8.0 | 0.00 | 0.00 | 0.00 | 87 | 1015.9 |
| 20260508043049 | 61 | 355 | 4.0 | 6.0 | 0.00 | 0.00 | 0.00 | 87 | 1016.0 |
| 20260508042536 | 61 | 15 | 3.0 | 6.0 | 0.00 | 0.00 | 0.00 | 87 | 1015.7 |
| 20260508042037 | 61 | 35 | 3.0 | 6.0 | 0.00 | 0.00 | 0.00 | 87 | 1015.5 |
| 20260508041547 | 61 | 73 | 3.0 | 6.0 | 0.00 | 0.00 | 0.00 | 87 | 1015.3 |
| 20260508041037 | 61 | 5 | 4.0 | 6.0 | 0.00 | 0.00 | 0.00 | 87 | 1015.6 |
| 20260508040537 | 61 | 36 | 2.0 | 5.0 | 0.00 | 0.00 | 0.00 | 87 | 1015.6 |
| 20260508040045 | 61 | 13 | 2.0 | 6.0 | 0.00 | 0.00 | 0.00 | 86 | 1015.5 |
| 20260508035537 | 61 | 41 | 2.0 | 6.0 | 0.00 | 0.00 | 0.00 | 86 | 1015.3 |
| 20260508035040 | 61 | 41 | 3.0 | 5.0 | 0.00 | 0.00 | 0.00 | 86 | 1015.0 |
| 20260508034544 | 61 | 360 | 2.0 | 4.0 | 0.00 | 0.00 | 0.00 | 86 | 1015.2 |
| 20260508034036 | 61 | 360 | 1.0 | 4.0 | 0.00 | 0.00 | 0.00 | 86 | 1015.4 |
| 20260508033536 | 61 | 360 | 2.0 | 6.0 | 0.00 | 0.00 | 0.00 | 86 | 1015.5 |
| 20260508033111 | 61 | 360 | 2.0 | 6.0 | 0.00 | 0.00 | 0.00 | 86 | 1015.6 |
| 20260508032537 | 62 | 328 | 4.0 | 6.0 | 0.00 | 0.00 | 0.00 | 86 | 1015.5 |
| 20260508032037 | 62 | 349 | 1.0 | 4.0 | 0.00 | 0.00 | 0.00 | 86 | 1015.2 |
| 20260508031549 | 62 | 349 | 1.0 | 3.0 | 0.00 | 0.00 | 0.00 | 86 | 1014.9 |
| 20260508031037 | 62 | 0 | 0.0 | 3.0 | 0.00 | 0.00 | 0.00 | 86 | 1015.0 |
| 20260508030537 | 62 | 349 | 1.0 | 3.0 | 0.00 | 0.00 | 0.00 | 86 | 1015.4 |
| 20260508030100 | 62 | 349 | 0.0 | 4.0 | 0.00 | 0.00 | 0.00 | 86 | 1015.5 |
| 20260508025537 | 62 | 0 | 1.0 | 5.0 | 0.00 | 0.00 | 0.00 | 85 | 1015.6 |
| 20260508025037 | 62 | 5 | 2.0 | 5.0 | 0.00 | 0.00 | 0.00 | 85 | 1015.7 |
| 20260508024550 | 62 | 51 | 2.0 | 7.0 | 0.00 | 0.00 | 0.00 | 85 | 1015.3 |
| 20260508024037 | 62 | 355 | 2.0 | 7.0 | 0.00 | 0.00 | 0.00 | 85 | 1015.4 |
| 20260508023537 | 62 | 112 | 3.0 | 7.0 | 0.00 | 0.00 | 0.00 | 85 | 1015.2 |
| 20260508023047 | 62 | 113 | 3.0 | 6.0 | 0.00 | 0.00 | 0.00 | 85 | 1015.0 |
| 20260508022537 | 62 | 113 | 2.0 | 4.0 | 0.00 | 0.00 | 0.00 | 85 | 1014.8 |
| 20260508022037 | 62 | 0 | 0.0 | 3.0 | 0.00 | 0.00 | 0.00 | 85 | 1014.8 |
| 20260508021547 | 62 | 0 | 0.0 | 3.0 | 0.00 | 0.00 | 0.00 | 85 | 1014.8 |
| 20260508021039 | 62 | 115 | 0.0 | 3.0 | 0.00 | 0.00 | 0.00 | 85 | 1014.9 |
| 20260508020537 | 62 | 0 | 0.0 | 3.0 | 0.00 | 0.00 | 0.00 | 85 | 1014.9 |
| 20260508015537 | 62 | 138 | 0.0 | 4.0 | 0.00 | 0.00 | 0.00 | 85 | 1014.7 |
| 20260508015036 | 62 | 132 | 1.0 | 4.0 | 0.00 | 0.00 | 0.00 | 85 | 1014.9 |
| 20260508014555 | 62 | 0 | 0.0 | 0.0 | 0.00 | 0.00 | 0.00 | 84 | 1015.2 |
| 20260508014036 | 63 | 0 | 0.0 | 3.0 | 0.00 | 0.00 | 0.00 | 85 | 1015.4 |
| 20260508013537 | 63 | 0 | 1.0 | 4.0 | 0.00 | 0.00 | 0.00 | 84 | 1015.5 |
| 20260508013054 | 63 | 0 | 0.0 | 5.0 | 0.00 | 0.00 | 0.00 | 84 | 1015.3 |
| 20260508012537 | 63 | 46 | 2.0 | 5.0 | 0.00 | 0.00 | 0.00 | 84 | 1015.1 |
| 20260508012037 | 63 | 13 | 3.0 | 5.0 | 0.00 | 0.00 | 0.00 | 84 | 1015.1 |
| 20260508011556 | 63 | 44 | 3.0 | 5.0 | 0.00 | 0.00 | 0.00 | 83 | 1015.2 |
| 20260508011036 | 63 | 350 | 3.0 | 5.0 | 0.00 | 0.00 | 0.00 | 83 | 1015.5 |
| 20260508010536 | 63 | 40 | 3.0 | 5.0 | 0.00 | 0.00 | 0.00 | 82 | 1015.7 |
| 20260508010104 | 63 | 40 | 3.0 | 8.0 | 0.00 | 0.00 | 0.00 | 82 | 1015.5 |
| 20260508005537 | 64 | 40 | 3.0 | 8.0 | 0.00 | 0.00 | 0.00 | 82 | 1015.4 |
| 20260508005037 | 64 | 18 | 4.0 | 8.0 | 0.00 | 0.00 | 0.00 | 81 | 1015.8 |
| 20260508004550 | 64 | 5 | 3.0 | 5.0 | 0.00 | 0.00 | 0.00 | 81 | 1015.8 |
| 20260508004037 | 64 | 15 | 3.0 | 5.0 | 0.00 | 0.00 | 0.00 | 81 | 1015.8 |
| 20260508003537 | 64 | 20 | 2.0 | 5.0 | 0.00 | 0.00 | 0.00 | 81 | 1015.8 |
| 20260508003048 | 64 | 346 | 3.0 | 5.0 | 0.00 | 0.00 | 0.00 | 81 | 1015.7 |
| 20260508002537 | 64 | 9 | 2.0 | 8.0 | 0.00 | 0.00 | 0.00 | 80 | 1015.6 |
| 20260508002038 | 64 | 360 | 3.0 | 8.0 | 0.00 | 0.00 | 0.00 | 80 | 1015.5 |
| 20260508001555 | 64 | 333 | 4.0 | 8.0 | 0.00 | 0.00 | 0.00 | 80 | 1015.7 |
| 20260508001036 | 64 | 355 | 3.0 | 9.0 | 0.00 | 0.00 | 0.00 | 80 | 1015.8 |
| 20260508000538 | 65 | 360 | 4.0 | 9.0 | 0.00 | 0.00 | 0.00 | 80 | 1015.7 |
| 20260508000053 | 65 | 5 | 3.0 | 8.0 | 0.00 | 0.00 | 0.00 | 80 | 1015.7 |
| 20260507235537 | 65 | 9 | 4.0 | 8.0 | 0.00 | 0.00 | 0.00 | 80 | 1015.7 |
| 20260507235037 | 65 | 352 | 4.0 | 9.0 | 0.00 | 0.00 | 0.00 | 80 | 1015.8 |
| 20260507234547 | 65 | 360 | 6.0 | 9.0 | 0.00 | 0.00 | 0.00 | 80 | 1015.4 |
| 20260507234037 | 65 | 336 | 5.0 | 8.0 | 0.00 | 0.00 | 0.00 | 80 | 1015.5 |
| 20260507233537 | 65 | 360 | 4.0 | 7.0 | 0.00 | 0.00 | 0.00 | 80 | 1015.5 |
| 20260507233053 | 65 | 25 | 2.0 | 4.0 | 0.00 | 0.00 | 0.00 | 80 | 1015.3 |
| 20260507232536 | 65 | 14 | 2.0 | 5.0 | 0.00 | 0.00 | 0.00 | 80 | 1015.4 |
| 20260507232037 | 65 | 338 | 2.0 | 8.0 | 0.00 | 0.00 | 0.00 | 80 | 1015.6 |
| 20260507231548 | 65 | 360 | 4.0 | 9.0 | 0.00 | 0.00 | 0.00 | 80 | 1015.7 |
| 20260507231037 | 65 | 360 | 4.0 | 9.0 | 0.00 | 0.00 | 0.00 | 80 | 1015.7 |
| 20260507230537 | 65 | 346 | 6.0 | 9.0 | 0.00 | 0.00 | 0.00 | 81 | 1015.9 |
| 20260507230053 | 65 | 338 | 3.0 | 5.0 | 0.00 | 0.00 | 0.00 | 82 | 1015.8 |
| 20260507225537 | 64 | 338 | 0.0 | 5.0 | 0.00 | 0.00 | 0.00 | 81 | 1015.8 |
| 20260507225037 | 64 | 338 | 2.0 | 9.0 | 0.00 | 0.00 | 0.00 | 81 | 1016.0 |
| 20260507224551 | 64 | 350 | 3.0 | 9.0 | 0.00 | 0.00 | 0.00 | 81 | 1015.9 |
| 20260507224038 | 65 | 335 | 4.0 | 11.0 | 0.00 | 0.00 | 0.00 | 81 | 1015.8 |
| 20260507223542 | 65 | 351 | 4.0 | 11.0 | 0.00 | 0.00 | 0.00 | 80 | 1015.8 |
| 20260507223050 | 65 | 322 | 7.0 | 11.0 | 0.00 | 0.00 | 0.00 | 79 | 1016.0 |
| 20260507222538 | 65 | 350 | 3.0 | 6.0 | 0.00 | 0.00 | 0.00 | 78 | 1015.9 |
| 20260507222037 | 65 | 336 | 2.0 | 8.0 | 0.00 | 0.00 | 0.00 | 77 | 1015.9 |
| 20260507221543 | 65 | 336 | 2.0 | 8.0 | 0.00 | 0.00 | 0.00 | 77 | 1016.1 |
| 20260507221037 | 65 | 329 | 4.0 | 8.0 | 0.00 | 0.00 | 0.00 | 77 | 1016.2 |
| 20260507220536 | 66 | 349 | 3.0 | 9.0 | 0.00 | 0.00 | 0.00 | 76 | 1016.1 |
| 20260507220052 | 66 | 16 | 3.0 | 9.0 | 0.00 | 0.00 | 0.00 | 76 | 1015.9 |
| 20260507215538 | 66 | 5 | 5.0 | 10.0 | 0.00 | 0.00 | 0.00 | 75 | 1015.9 |
| 20260507215039 | 66 | 342 | 4.0 | 10.0 | 0.00 | 0.00 | 0.00 | 75 | 1015.9 |
| 20260507214549 | 67 | 355 | 6.0 | 10.0 | 0.00 | 0.00 | 0.00 | 73 | 1015.7 |
| 20260507214038 | 67 | 5 | 5.0 | 9.0 | 0.00 | 0.00 | 0.00 | 72 | 1015.5 |
| 20260507213537 | 67 | 24 | 5.0 | 8.0 | 0.00 | 0.00 | 0.00 | 72 | 1015.8 |
| 20260507213055 | 67 | 57 | 3.0 | 8.0 | 0.00 | 0.00 | 0.00 | 71 | 1015.9 |
| 20260507212537 | 68 | 360 | 4.0 | 10.0 | 0.00 | 0.00 | 0.00 | 71 | 1015.9 |
| 20260507212037 | 68 | 19 | 5.0 | 10.0 | 0.00 | 0.00 | 0.00 | 69 | 1015.8 |
| 20260507211554 | 68 | 337 | 5.0 | 9.0 | 0.00 | 0.00 | 0.00 | 69 | 1016.1 |
| 20260507211038 | 68 | 320 | 5.0 | 10.0 | 0.00 | 0.00 | 0.00 | 70 | 1016.2 |
| 20260507210537 | 68 | 352 | 4.0 | 10.0 | 0.00 | 0.00 | 0.00 | 70 | 1016.1 |
| 20260507210044 | 68 | 40 | 1.0 | 10.0 | 0.00 | 0.00 | 0.00 | 68 | 1016.0 |
| 20260507205537 | 68 | 92 | 3.0 | 10.0 | 0.00 | 0.00 | 0.00 | 68 | 1015.8 |
| 20260507205036 | 68 | 60 | 6.0 | 9.0 | 0.00 | 0.00 | 0.00 | 69 | 1015.8 |
| 20260507204551 | 68 | 63 | 4.0 | 10.0 | 0.00 | 0.00 | 0.00 | 70 | 1015.8 |
| 20260507204036 | 68 | 32 | 6.0 | 11.0 | 0.00 | 0.00 | 0.00 | 69 | 1016.0 |
| 20260507203538 | 68 | 27 | 5.0 | 11.0 | 0.00 | 0.00 | 0.00 | 70 | 1016.1 |
| 20260507203048 | 68 | 44 | 6.0 | 14.0 | 0.00 | 0.00 | 0.00 | 69 | 1016.2 |
| 20260507202537 | 69 | 5 | 7.0 | 14.0 | 0.00 | 0.00 | 0.00 | 68 | 1016.6 |
| 20260507202036 | 69 | 24 | 7.0 | 12.0 | 0.00 | 0.00 | 0.00 | 69 | 1016.5 |
| 20260507201550 | 69 | 350 | 8.0 | 12.0 | 0.00 | 0.00 | 0.00 | 69 | 1016.3 |
| 20260507201039 | 69 | 5 | 7.0 | 14.0 | 0.00 | 0.00 | 0.00 | 68 | 1016.9 |
| 20260507200538 | 69 | 17 | 9.0 | 14.0 | 0.00 | 0.00 | 0.00 | 68 | 1017.0 |
| 20260507200051 | 69 | 37 | 7.0 | 14.0 | 0.00 | 0.00 | 0.00 | 71 | 1017.0 |
| 20260507195536 | 68 | 355 | 9.0 | 14.0 | 0.00 | 0.00 | 0.00 | 70 | 1017.6 |
| 20260507195038 | 68 | 36 | 8.0 | 13.0 | 0.00 | 0.00 | 0.00 | 69 | 1016.4 |
| 20260507194549 | 68 | 60 | 6.0 | 16.0 | 0.00 | 0.00 | 0.00 | 69 | 1016.5 |
| 20260507194036 | 68 | 41 | 9.0 | 16.0 | 0.00 | 0.00 | 0.00 | 69 | 1016.8 |
| 20260507193537 | 68 | 17 | 7.0 | 15.0 | 0.00 | 0.00 | 0.00 | 70 | 1016.7 |
| 20260507193049 | 68 | 53 | 10.0 | 15.0 | 0.00 | 0.00 | 0.00 | 69 | 1016.4 |
| 20260507192536 | 68 | 34 | 9.0 | 14.0 | 0.00 | 0.00 | 0.00 | 71 | 1017.0 |
| 20260507192036 | 67 | 39 | 7.0 | 10.0 | 0.00 | 0.00 | 0.00 | 72 | 1017.4 |
| 20260507191555 | 67 | 40 | 5.0 | 12.0 | 0.00 | 0.00 | 0.00 | 70 | 1017.3 |
| 20260507191035 | 67 | 47 | 6.0 | 12.0 | 0.00 | 0.00 | 0.00 | 72 | 1017.5 |
| 20260507190536 | 67 | 34 | 6.0 | 12.0 | 0.00 | 0.00 | 0.00 | 72 | 1017.7 |
| 20260507190052 | 67 | 348 | 8.0 | 12.0 | 0.00 | 0.00 | 0.00 | 72 | 1017.9 |
| 20260507185535 | 66 | 32 | 7.0 | 10.0 | 0.00 | 0.00 | 0.00 | 73 | 1017.7 |
| 20260507185038 | 66 | 11 | 2.0 | 10.0 | 0.00 | 0.00 | 0.00 | 74 | 1017.5 |
| 20260507184542 | 66 | 360 | 8.0 | 10.0 | 0.00 | 0.00 | 0.00 | 73 | 1017.3 |
| 20260507184036 | 66 | 5 | 7.0 | 11.0 | 0.00 | 0.00 | 0.00 | 74 | 1017.8 |
| 20260507183536 | 66 | 340 | 7.0 | 11.0 | 0.00 | 0.00 | 0.00 | 73 | 1018.4 |
| 20260507183055 | 66 | 314 | 4.0 | 13.0 | 0.00 | 0.00 | 0.00 | 73 | 1018.2 |
| 20260507182537 | 66 | 326 | 7.0 | 13.0 | 0.00 | 0.00 | 0.00 | 72 | 1018.1 |
| 20260507182037 | 66 | 15 | 7.0 | 13.0 | 0.00 | 0.00 | 0.00 | 73 | 1018.0 |
| 20260507181549 | 66 | 350 | 7.0 | 13.0 | 0.00 | 0.00 | 0.00 | 73 | 1018.1 |
| 20260507181036 | 66 | 21 | 5.0 | 12.0 | 0.00 | 0.00 | 0.00 | 71 | 1017.4 |
| 20260507180538 | 66 | 45 | 5.0 | 16.0 | 0.00 | 0.00 | 0.00 | 73 | 1017.6 |
| 20260507180053 | 66 | 40 | 9.0 | 15.0 | 0.00 | 0.00 | 0.00 | 73 | 1017.6 |
| 20260507175536 | 65 | 10 | 8.0 | 14.0 | 0.00 | 0.00 | 0.00 | 73 | 1017.7 |
| 20260507175036 | 66 | 30 | 6.0 | 14.0 | 0.00 | 0.00 | 0.00 | 73 | 1017.5 |
| 20260507174551 | 66 | 15 | 5.0 | 14.0 | 0.00 | 0.00 | 0.00 | 74 | 1017.6 |
| 20260507174036 | 65 | 22 | 9.0 | 13.0 | 0.00 | 0.00 | 0.00 | 74 | 1018.2 |
| 20260507173539 | 64 | 360 | 5.0 | 10.0 | 0.00 | 0.00 | 0.00 | 73 | 1018.1 |
| 20260507173058 | 64 | 46 | 5.0 | 10.0 | 0.00 | 0.00 | 0.00 | 75 | 1018.1 |
| 20260507172539 | 64 | 339 | 6.0 | 10.0 | 0.00 | 0.00 | 0.00 | 73 | 1018.3 |
| 20260507172040 | 65 | 333 | 5.0 | 12.0 | 0.00 | 0.00 | 0.00 | 74 | 1018.2 |
| 20260507171554 | 64 | 344 | 6.0 | 12.0 | 0.00 | 0.00 | 0.00 | 75 | 1018.5 |
| 20260507171035 | 64 | 338 | 6.0 | 11.0 | 0.00 | 0.00 | 0.00 | 75 | 1018.3 |
| 20260507170537 | 63 | 355 | 7.0 | 12.0 | 0.00 | 0.00 | 0.00 | 74 | 1018.5 |
| 20260507170054 | 63 | 336 | 7.0 | 11.0 | 0.00 | 0.00 | 0.00 | 75 | 1018.3 |
| 20260507165539 | 63 | 5 | 7.0 | 11.0 | 0.00 | 0.00 | 0.00 | 75 | 1018.4 |
| 20260507165037 | 63 | 336 | 5.0 | 12.0 | 0.00 | 0.00 | 0.00 | 75 | 1018.7 |
| 20260507164548 | 63 | 360 | 6.0 | 13.0 | 0.00 | 0.00 | 0.00 | 75 | 1018.6 |
| 20260507164038 | 63 | 355 | 8.0 | 13.0 | 0.00 | 0.00 | 0.00 | 74 | 1018.7 |
| 20260507163536 | 63 | 43 | 6.0 | 13.0 | 0.00 | 0.00 | 0.00 | 74 | 1018.5 |
| 20260507163048 | 63 | 21 | 5.0 | 12.0 | 0.00 | 0.00 | 0.00 | 74 | 1018.3 |
| 20260507162539 | 63 | 34 | 6.0 | 13.0 | 0.00 | 0.00 | 0.00 | 75 | 1018.2 |
| 20260507162035 | 63 | 22 | 9.0 | 13.0 | 0.00 | 0.00 | 0.00 | 74 | 1018.3 |
| 20260507161552 | 63 | 50 | 8.0 | 14.0 | 0.00 | 0.00 | 0.00 | 77 | 1018.1 |
| 20260507161035 | 62 | 360 | 8.0 | 13.0 | 0.00 | 0.00 | 0.00 | 76 | 1018.0 |
| 20260507160538 | 62 | 41 | 7.0 | 15.0 | 0.00 | 0.00 | 0.00 | 76 | 1018.2 |
| 20260507160053 | 62 | 44 | 8.0 | 15.0 | 0.00 | 0.00 | 0.00 | 75 | 1018.2 |
| 20260507155535 | 62 | 360 | 9.0 | 15.0 | 0.00 | 0.00 | 0.00 | 77 | 1017.9 |
| 20260507155042 | 62 | 9 | 7.0 | 16.0 | 0.00 | 0.00 | 0.00 | 78 | 1017.7 |
| 20260507154552 | 61 | 22 | 10.0 | 16.0 | 0.00 | 0.00 | 0.00 | 77 | 1017.6 |
| 20260507154036 | 61 | 13 | 10.0 | 16.0 | 0.00 | 0.00 | 0.00 | 77 | 1017.6 |
| 20260507153535 | 61 | 35 | 9.0 | 15.0 | 0.00 | 0.00 | 0.00 | 78 | 1017.7 |
| 20260507153054 | 61 | 13 | 9.0 | 16.0 | 0.00 | 0.00 | 0.00 | 78 | 1018.0 |
| 20260507152535 | 60 | 17 | 11.0 | 16.0 | 0.00 | 0.00 | 0.00 | 78 | 1018.3 |
| 20260507152036 | 61 | 34 | 10.0 | 18.0 | 0.00 | 0.00 | 0.00 | 77 | 1018.4 |
| 20260507151548 | 61 | 26 | 11.0 | 18.0 | 0.00 | 0.00 | 0.00 | 77 | 1018.4 |
| 20260507151037 | 61 | 5 | 11.0 | 17.0 | 0.00 | 0.00 | 0.00 | 78 | 1018.6 |
| 20260507150535 | 60 | 5 | 11.0 | 17.0 | 0.00 | 0.00 | 0.00 | 79 | 1018.5 |
| 20260507150050 | 60 | 22 | 9.0 | 16.0 | 0.00 | 0.00 | 0.00 | 79 | 1018.4 |
| 20260507145538 | 60 | 28 | 8.0 | 15.0 | 0.00 | 0.00 | 0.00 | 80 | 1018.4 |
| 20260507145038 | 59 | 350 | 10.0 | 15.0 | 0.00 | 0.00 | 0.00 | 80 | 1018.5 |
| 20260507144553 | 59 | 38 | 8.0 | 15.0 | 0.00 | 0.00 | 0.00 | 80 | 1018.5 |
| 20260507144036 | 59 | 44 | 9.0 | 15.0 | 0.00 | 0.00 | 0.00 | 81 | 1018.5 |
| 20260507143535 | 58 | 9 | 10.0 | 15.0 | 0.00 | 0.00 | 0.00 | 80 | 1018.4 |
| 20260507143059 | 58 | 27 | 10.0 | 16.0 | 0.00 | 0.00 | 0.00 | 80 | 1018.4 |
| 20260507142537 | 59 | 11 | 11.0 | 16.0 | 0.00 | 0.00 | 0.00 | 80 | 1018.5 |
| 20260507142037 | 59 | 25 | 11.0 | 18.0 | 0.00 | 0.00 | 0.00 | 81 | 1018.8 |
| 20260507141551 | 59 | 19 | 10.0 | 18.0 | 0.00 | 0.00 | 0.00 | 81 | 1018.9 |
| 20260507141037 | 59 | 360 | 9.0 | 18.0 | 0.00 | 0.00 | 0.00 | 81 | 1019.2 |
| 20260507140539 | 59 | 32 | 10.0 | 15.0 | 0.00 | 0.00 | 0.00 | 81 | 1019.3 |
| 20260507140056 | 59 | 45 | 10.0 | 16.0 | 0.00 | 0.00 | 0.00 | 81 | 1019.1 |
| 20260507135537 | 59 | 18 | 10.0 | 16.0 | 0.00 | 0.00 | 0.00 | 81 | 1018.7 |
| 20260507135037 | 58 | 9 | 9.0 | 17.0 | 0.00 | 0.00 | 0.00 | 82 | 1018.5 |
| 20260507134550 | 58 | 16 | 10.0 | 17.0 | 0.00 | 0.00 | 0.00 | 82 | 1018.4 |
| 20260507134036 | 58 | 13 | 12.0 | 16.0 | 0.00 | 0.00 | 0.00 | 81 | 1018.4 |
| 20260507133537 | 58 | 21 | 11.0 | 16.0 | 0.00 | 0.00 | 0.00 | 82 | 1018.6 |
| 20260507133054 | 58 | 12 | 10.0 | 14.0 | 0.00 | 0.00 | 0.00 | 83 | 1018.9 |
| 20260507132536 | 58 | 352 | 6.0 | 11.0 | 0.00 | 0.00 | 0.00 | 83 | 1018.8 |
| 20260507132037 | 58 | 352 | 7.0 | 14.0 | 0.00 | 0.00 | 0.00 | 84 | 1018.8 |
| 20260507131552 | 58 | 28 | 9.0 | 14.0 | 0.00 | 0.00 | 0.00 | 84 | 1018.8 |
| 20260507131037 | 57 | 355 | 6.0 | 12.0 | 0.00 | 0.00 | 0.00 | 85 | 1018.6 |
| 20260507130537 | 57 | 9 | 5.0 | 13.0 | 0.00 | 0.00 | 0.00 | 85 | 1018.4 |
| 20260507130104 | 57 | 22 | 7.0 | 13.0 | 0.00 | 0.00 | 0.00 | 85 | 1018.4 |
| 20260507125537 | 57 | 19 | 9.0 | 13.0 | 0.00 | 0.00 | 0.00 | 84 | 1018.2 |
| 20260507125037 | 57 | 16 | 7.0 | 15.0 | 0.00 | 0.00 | 0.00 | 86 | 1018.3 |
| 20260507124556 | 57 | 12 | 7.0 | 15.0 | 0.00 | 0.00 | 0.00 | 86 | 1018.2 |
| 20260507124037 | 57 | 331 | 6.0 | 12.0 | 0.00 | 0.00 | 0.00 | 87 | 1018.4 |
| 20260507123537 | 57 | 360 | 8.0 | 12.0 | 0.00 | 0.00 | 0.00 | 87 | 1018.5 |
| 20260507123050 | 57 | 360 | 5.0 | 12.0 | 0.00 | 0.00 | 0.00 | 87 | 1018.7 |
| 20260507122536 | 57 | 352 | 7.0 | 12.0 | 0.00 | 0.00 | 0.00 | 87 | 1018.4 |
| 20260507122039 | 57 | 327 | 6.0 | 13.0 | 0.00 | 0.00 | 0.00 | 87 | 1018.0 |
| 20260507121556 | 57 | 14 | 7.0 | 13.0 | 0.00 | 0.00 | 0.00 | 88 | 1017.6 |
| 20260507121037 | 57 | 360 | 8.0 | 15.0 | 0.00 | 0.00 | 0.00 | 88 | 1017.4 |
| 20260507120537 | 57 | 32 | 10.0 | 14.0 | 0.00 | 0.00 | 0.00 | 88 | 1017.1 |
| 20260507120050 | 57 | 5 | 9.0 | 14.0 | 0.00 | 0.00 | 0.00 | 89 | 1017.3 |
| 20260507115539 | 57 | 355 | 6.0 | 14.0 | 0.00 | 0.00 | 0.00 | 89 | 1017.4 |
| 20260507115037 | 57 | 5 | 8.0 | 13.0 | 0.00 | 0.00 | 0.00 | 89 | 1017.5 |
| 20260507114550 | 57 | 351 | 8.0 | 11.0 | 0.00 | 0.00 | 0.00 | 89 | 1017.4 |
| 20260507114037 | 57 | 5 | 7.0 | 14.0 | 0.00 | 0.00 | 0.00 | 89 | 1017.5 |
| 20260507113539 | 57 | 22 | 9.0 | 14.0 | 0.00 | 0.00 | 0.00 | 89 | 1016.9 |
| 20260507113052 | 57 | 17 | 8.0 | 12.0 | 0.00 | 0.00 | 0.00 | 89 | 1017.2 |
| 20260507112537 | 57 | 360 | 7.0 | 13.0 | 0.00 | 0.00 | 0.00 | 89 | 1017.3 |
| 20260507112037 | 57 | 5 | 8.0 | 13.0 | 0.00 | 0.00 | 0.00 | 89 | 1017.0 |
| 20260507111553 | 57 | 360 | 8.0 | 13.0 | 0.00 | 0.00 | 0.00 | 89 | 1017.3 |
| 20260507111037 | 57 | 355 | 5.0 | 13.0 | 0.00 | 0.00 | 0.00 | 89 | 1017.6 |
| 20260507110538 | 57 | 349 | 9.0 | 13.0 | 0.00 | 0.00 | 0.00 | 89 | 1017.3 |
| 20260507110058 | 57 | 360 | 8.0 | 13.0 | 0.00 | 0.00 | 0.00 | 89 | 1017.5 |
| 20260507105539 | 57 | 5 | 6.0 | 12.0 | 0.00 | 0.00 | 0.00 | 89 | 1017.3 |
| 20260507105037 | 58 | 16 | 7.0 | 12.0 | 0.00 | 0.00 | 0.00 | 89 | 1017.1 |
| 20260507104552 | 58 | 11 | 6.0 | 11.0 | 0.00 | 0.00 | 0.00 | 89 | 1017.1 |
| 20260507104038 | 58 | 348 | 5.0 | 13.0 | 0.00 | 0.00 | 0.00 | 90 | 1016.9 |
| 20260507103539 | 58 | 5 | 7.0 | 13.0 | 0.00 | 0.00 | 0.00 | 90 | 1016.7 |
| 20260507103117 | 58 | 22 | 7.0 | 13.0 | 0.00 | 0.00 | 0.00 | 89 | 1016.8 |
| 20260507102536 | 58 | 16 | 7.0 | 12.0 | 0.00 | 0.00 | 0.00 | 90 | 1016.6 |
| 20260507102037 | 58 | 33 | 5.0 | 11.0 | 0.00 | 0.00 | 0.00 | 90 | 1016.5 |
| 20260507101550 | 58 | 352 | 7.0 | 14.0 | 0.00 | 0.00 | 0.00 | 90 | 1016.7 |
| 20260507101037 | 58 | 35 | 6.0 | 14.0 | 0.00 | 0.00 | 0.00 | 90 | 1015.9 |
| 20260507100538 | 58 | 18 | 8.0 | 13.0 | 0.00 | 0.00 | 0.00 | 90 | 1015.7 |
| 20260507100103 | 58 | 38 | 6.0 | 13.0 | 0.00 | 0.00 | 0.00 | 90 | 1016.0 |
| 20260507095537 | 58 | 10 | 6.0 | 13.0 | 0.00 | 0.00 | 0.00 | 90 | 1016.4 |
| 20260507095036 | 58 | 5 | 7.0 | 13.0 | 0.00 | 0.00 | 0.00 | 90 | 1016.0 |
| 20260507094552 | 58 | 24 | 7.0 | 11.0 | 0.00 | 0.00 | 0.00 | 90 | 1015.7 |
| 20260507094037 | 58 | 5 | 5.0 | 13.0 | 0.00 | 0.00 | 0.00 | 91 | 1015.9 |
| 20260507093539 | 58 | 19 | 5.0 | 13.0 | 0.00 | 0.00 | 0.00 | 90 | 1015.5 |
| 20260507093050 | 58 | 50 | 6.0 | 11.0 | 0.00 | 0.00 | 0.00 | 90 | 1015.1 |
| 20260507092538 | 58 | 39 | 7.0 | 12.0 | 0.00 | 0.00 | 0.00 | 90 | 1015.0 |
| 20260507092038 | 58 | 49 | 6.0 | 12.0 | 0.00 | 0.00 | 0.00 | 91 | 1014.8 |
| 20260507091548 | 58 | 13 | 6.0 | 10.0 | 0.00 | 0.00 | 0.00 | 90 | 1015.2 |
| 20260507091039 | 58 | 33 | 5.0 | 12.0 | 0.00 | 0.00 | 0.00 | 90 | 1015.3 |
| 20260507090538 | 58 | 355 | 8.0 | 12.0 | 0.00 | 0.00 | 0.00 | 90 | 1015.4 |
| 20260507090055 | 58 | 51 | 7.0 | 12.0 | 0.00 | 0.00 | 0.00 | 90 | 1014.4 |
| 20260507085537 | 59 | 33 | 8.0 | 12.0 | 0.00 | 0.00 | 0.00 | 90 | 1015.1 |
| 20260507085037 | 59 | 25 | 6.0 | 11.0 | 0.00 | 0.00 | 0.00 | 90 | 1015.0 |
| 20260507084603 | 59 | 63 | 5.0 | 12.0 | 0.00 | 0.00 | 0.00 | 90 | 1015.1 |
| 20260507084038 | 59 | 51 | 5.0 | 12.0 | 0.00 | 0.00 | 0.00 | 91 | 1014.9 |
| 20260507083537 | 59 | 56 | 4.0 | 11.0 | 0.00 | 0.00 | 0.00 | 90 | 1015.1 |
| 20260507083051 | 59 | 49 | 5.0 | 11.0 | 0.00 | 0.00 | 0.00 | 90 | 1015.4 |
| 20260507082537 | 59 | 49 | 7.0 | 15.0 | 0.00 | 0.00 | 0.00 | 90 | 1015.4 |
| 20260507082037 | 59 | 38 | 8.0 | 16.0 | 0.00 | 0.00 | 0.00 | 90 | 1015.1 |
| 20260507081547 | 59 | 5 | 10.0 | 16.0 | 0.00 | 0.00 | 0.00 | 90 | 1015.0 |